Weather History for KISQ - December, 2013

Change the Weather History Date:

Wednesday, December 18, 2013

  Actual Average Record
Temperature  
Mean Temperature 22 °F -  
Max Temperature 31 °F 28 °F 42 °F (1949)
Min Temperature 13 °F 14 °F -12 °F (1983)
Degree Days  
Heating Degree Days 43    
Moisture  
Dew Point 13 °F    
Average Humidity 76    
Maximum Humidity 89    
Minimum Humidity 65    
Precipitation  
Precipitation 0.00 in - - ()
Sea Level Pressure  
Sea Level Pressure 29.86 in    
Wind  
Wind Speed 10 mph (WSW)    
Max Wind Speed 16 mph    
Max Gust Speed 24 mph    
Visibility 10 miles    
Events Snow    
Averages and records for this station are not official NWS values.
T = Trace of Precipitation, MM = Missing Value Source: NWS Daily Summary

Daily Weather History Graph

Daily Weather History Graph

Search for Another Location

Airport or City:

Trip Planner

Search our weather history database for the weather conditions in past years. The results will help you decide how hot, cold, wet, or windy it might be!

Date:

Astronomy

Dec. 18, 2013 Rise Set
Actual Time 8:21 AM EST 5:00 PM EST
Civil Twilight 7:47 AM EST 5:35 PM EST
Nautical Twilight 7:09 AM EST 6:13 PM EST
Astronomical Twilight 6:32 AM EST 6:50 PM EST
Moon 6:37 PM EST (12/18) 8:57 AM EST (12/18)
Length of Visible Light 9h 48m
Length of Day
8h 39m
Full, 98% of the Moon is Illuminated
Dec 18
Full
Dec 25
Last Quarter
Jan 1
New
Jan 7
First Quarter
Jan 15
Full

Hourly Weather History & Observations

Time (EST) Temp. Windchill Dew Point Humidity Pressure Visibility Wind Dir Wind Speed Gust Speed Precip Events Conditions
12:15 AM 19.4 °F 6.6 °F 13.6 °F 78% 29.89 in 10.0 mi WNW 12.7 mph 18.4 mph N/A   Overcast
12:34 AM 19.2 °F 7.7 °F 14.0 °F 80% 29.89 in 10.0 mi WNW 10.4 mph 16.1 mph N/A   Overcast
12:55 AM 18.0 °F 3.1 °F 10.8 °F 73% 29.90 in 10.0 mi WNW 16.1 mph 24.2 mph N/A   Overcast
1:15 AM 16.5 °F 3.0 °F 9.9 °F 75% 29.90 in 10.0 mi NW 12.7 mph - N/A   Scattered Clouds
1:34 AM 16.7 °F 2.0 °F 9.9 °F 74% 29.90 in 10.0 mi WNW 15.0 mph - N/A   Mostly Cloudy
1:55 AM 16.2 °F 1.9 °F 9.3 °F 74% 29.91 in 10.0 mi WNW 13.8 mph 21.9 mph N/A   Overcast
2:15 AM 15.8 °F 0.9 °F 8.2 °F 72% 29.92 in 10.0 mi WNW 15.0 mph 23.0 mph N/A   Overcast
2:34 AM 14.9 °F 0.3 °F 7.7 °F 73% 29.92 in 10.0 mi WNW 13.8 mph - N/A   Overcast
2:54 AM 14.9 °F 1.6 °F 8.6 °F 76% 29.93 in 10.0 mi WNW 11.5 mph - N/A   Overcast
3:14 AM 15.6 °F 2.5 °F 9.0 °F 75% 29.93 in 10.0 mi WNW 11.5 mph - N/A   Overcast
3:35 AM 15.8 °F 2.1 °F 9.1 °F 75% 29.94 in 10.0 mi West 12.7 mph - N/A   Overcast
3:54 AM 15.8 °F 2.7 °F 9.3 °F 76% 29.93 in 10.0 mi WNW 11.5 mph - N/A   Overcast
4:15 AM 16.0 °F 2.3 °F 9.3 °F 75% 29.94 in 10.0 mi West 12.7 mph - N/A   Overcast
4:35 AM 16.2 °F 3.2 °F 9.3 °F 74% 29.94 in 10.0 mi West 11.5 mph 16.1 mph N/A   Overcast
4:54 AM 16.2 °F 3.2 °F 9.3 °F 74% 29.95 in 10.0 mi West 11.5 mph 17.3 mph N/A   Overcast
5:15 AM 16.2 °F 3.9 °F 9.3 °F 74% 29.95 in 10.0 mi West 10.4 mph - N/A   Overcast
5:35 AM 15.6 °F 3.2 °F 9.1 °F 76% 29.95 in 10.0 mi West 10.4 mph - N/A   Overcast
5:54 AM 14.9 °F 4.0 °F 8.8 °F 77% 29.95 in 10.0 mi West 8.1 mph - N/A   Overcast
6:15 AM 13.6 °F 2.5 °F 7.3 °F 76% 29.96 in 10.0 mi West 8.1 mph - N/A   Scattered Clouds
6:34 AM 14.4 °F 3.3 °F 8.4 °F 77% 29.96 in 10.0 mi West 8.1 mph - N/A   Clear
6:54 AM 14.7 °F 3.8 °F 8.4 °F 76% 29.95 in 10.0 mi WSW 8.1 mph - N/A   Clear
7:15 AM 14.0 °F 3.9 °F 8.2 °F 78% 29.97 in 10.0 mi West 6.9 mph - N/A   Clear
7:34 AM 13.8 °F 3.7 °F 8.2 °F 78% 29.97 in 10.0 mi West 6.9 mph - N/A   Mostly Cloudy
7:55 AM 14.0 °F 5.1 °F 8.4 °F 78% 29.97 in 10.0 mi WSW 5.8 mph - N/A   Mostly Cloudy
8:14 AM 13.6 °F 3.5 °F 8.1 °F 78% 29.97 in 10.0 mi West 6.9 mph - N/A   Mostly Cloudy
8:34 AM 13.5 °F 3.3 °F 7.9 °F 78% 29.97 in 10.0 mi West 6.9 mph - N/A   Overcast
8:55 AM 14.4 °F 5.5 °F 7.7 °F 75% 29.98 in 10.0 mi West 5.8 mph - N/A   Overcast
9:14 AM 15.1 °F 5.2 °F 8.1 °F 74% 29.98 in 10.0 mi WSW 6.9 mph - N/A   Overcast
9:35 AM 16.3 °F 7.8 °F 8.4 °F 71% 29.97 in 10.0 mi WSW 5.8 mph - N/A   Overcast
9:55 AM 17.2 °F 5.2 °F 8.2 °F 68% 29.97 in 10.0 mi West 10.4 mph - N/A   Overcast
10:14 AM 17.4 °F 9.1 °F 7.7 °F 66% 29.97 in 10.0 mi West 5.8 mph - N/A   Mostly Cloudy
10:35 AM 17.1 °F 7.6 °F 7.5 °F 66% 29.97 in 10.0 mi West 6.9 mph - N/A   Scattered Clouds
10:55 AM 17.2 °F 7.8 °F 7.3 °F 65% 29.96 in 10.0 mi West 6.9 mph - N/A   Clear
11:14 AM 17.6 °F 8.2 °F 7.5 °F 65% 29.95 in 10.0 mi SW 6.9 mph - N/A   Clear
11:35 AM 17.2 °F 8.9 °F 7.9 °F 67% 29.95 in 10.0 mi SW 5.8 mph - N/A   Clear
11:54 AM 17.2 °F 7.8 °F 8.2 °F 68% 29.95 in 10.0 mi WSW 6.9 mph - N/A   Clear
12:14 PM 17.6 °F 8.2 °F 8.4 °F 67% 29.94 in 10.0 mi SSW 6.9 mph - N/A   Scattered Clouds
12:35 PM 17.6 °F 8.2 °F 8.2 °F 67% 29.94 in 10.0 mi SW 6.9 mph - N/A   Scattered Clouds
12:54 PM 18.1 °F 8.9 °F 8.4 °F 66% 29.93 in 10.0 mi SW 6.9 mph - N/A   Mostly Cloudy
1:15 PM 17.6 °F 9.3 °F 8.6 °F 68% 29.93 in 10.0 mi WSW 5.8 mph - N/A   Overcast
1:35 PM 17.6 °F 9.3 °F 9.3 °F 70% 29.92 in 10.0 mi SW 5.8 mph - N/A   Overcast
1:54 PM 18.1 °F 10.0 °F 9.7 °F 70% 29.90 in 10.0 mi SW 5.8 mph - N/A   Overcast
2:15 PM 18.5 °F 9.3 °F 10.9 °F 72% 29.89 in 10.0 mi SSW 6.9 mph - N/A   Overcast
2:35 PM 19.2 °F 11.3 °F 11.3 °F 71% 29.88 in 10.0 mi SW 5.8 mph - N/A   Overcast
2:54 PM 18.9 °F 10.8 °F 12.7 °F 77% 29.88 in 1.8 mi WSW 5.8 mph - N/A Snow Light Snow
3:15 PM 18.5 °F 13.3 °F 14.5 °F 85% 29.86 in 1.0 mi SW 3.5 mph - N/A Snow Light Snow
3:34 PM 18.5 °F - 14.9 °F 86% 29.85 in 5.0 mi Calm Calm - N/A Snow Light Snow
3:55 PM 18.5 °F - 14.9 °F 86% 29.83 in 10.0 mi Calm Calm - N/A   Overcast
4:15 PM 18.9 °F - 15.3 °F 86% 29.82 in 10.0 mi Calm Calm - N/A   Overcast
4:34 PM 19.4 °F - 15.8 °F 86% 29.81 in 10.0 mi Calm Calm - N/A   Overcast
4:55 PM 19.2 °F 14.1 °F 16.2 °F 88% 29.79 in 10.0 mi East 3.5 mph - N/A   Overcast
5:15 PM 19.2 °F 12.5 °F 16.3 °F 89% 29.78 in 10.0 mi ENE 4.6 mph - N/A   Overcast
5:35 PM 20.5 °F - 17.6 °F 89% 29.77 in 10.0 mi Calm Calm - N/A   Overcast
5:54 PM 27.0 °F 19.5 °F 22.1 °F 82% 29.75 in 10.0 mi South 6.9 mph - N/A   Overcast
6:15 PM 28.8 °F 20.2 °F 23.7 °F 81% 29.76 in 10.0 mi South 9.2 mph - N/A   Overcast
6:35 PM 29.8 °F 20.3 °F 26.2 °F 86% 29.76 in 10.0 mi South 11.5 mph 16.1 mph N/A   Overcast
6:54 PM 29.7 °F 19.1 °F 25.5 °F 85% 29.75 in 10.0 mi South 13.8 mph 21.9 mph N/A   Overcast
7:15 PM 29.1 °F 18.4 °F 23.9 °F 81% 29.74 in 10.0 mi SSE 13.8 mph - N/A   Overcast
7:34 PM 28.2 °F 17.2 °F 23.2 °F 81% 29.74 in 10.0 mi SSE 13.8 mph 19.6 mph N/A   Overcast
7:54 PM 28.2 °F 18.3 °F 23.2 °F 81% 29.73 in 10.0 mi SSE 11.5 mph 19.6 mph N/A   Overcast
8:15 PM 29.3 °F 19.6 °F 23.9 °F 80% 29.73 in 10.0 mi SSE 11.5 mph - N/A   Overcast
8:34 PM 29.8 °F 20.9 °F 23.9 °F 79% 29.71 in 10.0 mi SSE 10.4 mph - N/A   Overcast
8:55 PM 30.0 °F 21.1 °F 24.6 °F 80% 29.70 in 10.0 mi SSE 10.4 mph - N/A   Overcast
9:15 PM 30.2 °F 22.6 °F 25.0 °F 81% 29.70 in 10.0 mi SSE 8.1 mph - N/A   Overcast
9:34 PM 31.3 °F 25.6 °F 26.6 °F 83% 29.69 in 10.0 mi SSW 5.8 mph - N/A   Overcast
9:55 PM 31.6 °F 28.3 °F 22.5 °F 69% 29.69 in 10.0 mi WSW 3.5 mph - N/A   Overcast
10:14 PM 30.9 °F 27.5 °F 21.0 °F 67% 29.68 in 10.0 mi WSW 3.5 mph - N/A   Overcast
10:34 PM 30.4 °F 25.6 °F 21.0 °F 68% 29.68 in 10.0 mi SW 4.6 mph - N/A   Overcast
10:55 PM 29.5 °F 23.4 °F 19.9 °F 68% 29.68 in 10.0 mi WSW 5.8 mph - N/A   Overcast
11:14 PM 28.2 °F 23.1 °F 19.4 °F 70% 29.68 in 10.0 mi West 4.6 mph - N/A   Scattered Clouds
11:35 PM 27.1 °F 21.8 °F 19.4 °F 73% 29.67 in 10.0 mi West 4.6 mph - N/A   Clear
11:55 PM 26.1 °F 19.4 °F 19.6 °F 76% 29.68 in 10.0 mi West 5.8 mph - N/A   Clear